Cloud_Cover
2 69 2 2 4 10 12 54 78 93 7 3 99 88 3 23 34 0 0 0 0 1 78 65 10 39 80 71 20 66 100 76 5 54 9 1 0 4 0 1 5 38 5
0 0 0 5 16 78 100 91 62 41 99 4 4 12 12 18 4 0 0 0 0 0 19 50 100 17 86 97 85 21 98 100 59 63 96 0 0 0 1 0 3 5 5
4 0 4 4 0 2 42 2 45 1 0 20 0 5 5 18 5 57 5 0 0 0 0 5 89 100 27 88 100 95 56 49 75 98 5 88 96 0 0 3 2 5 5
0 0 0 0 17 11 32 0 16 0 0 0 0 0 0 32 88 54 22 10 1 0 0 0 0 5 72 100 100 100 100 100 87 100 98 79 82 100 6 0 4 3 5
84 0 0 0 5 97 0 0 36 54 47 0 0 0 0 6 100 100 26 76 39 17 9 11 6 0 2 7 51 100 100 100 100 99 100 55 25 47 100 5 0 0 1
0 0 0 0 0 1 0 19 24 7 0 0 0 0 0 0 10 6 80 16 98 100 28 3 93 24 11 0 5 15 45 100 100 100 99 65 100 83 77 87 2 0 0
0 0 0 0 0 68 2 20 3 0 0 0 0 0 0 91 1 1 0 4 6 95 100 93 44 100 26 1 1 4 5 5 100 100 100 100 100 100 98 52 6 5 0
0 0 0 0 0 0 0 0 0 0 0 0 2 0 1 91 14 68 5 14 3 1 36 80 84 8 2 1 0 0 3 17 88 100 100 100 100 100 100 100 100 71 6
0 0 0 0 0 0 5 0 0 0 0 0 1 1 6 3 100 6 89 27 57 16 4 100 100 42 60 6 1 1 2 0 14 100 100 100 100 99 100 100 99 98 52
0 0 0 0 0 0 2 0 0 0 0 0 2 0 0 0 16 92 37 0 41 29 77 18 34 11 10 79 20 5 5 0 4 5 44 100 100 100 100 100 100 86 100
0 0 0 0 0 0 1 4 5 5 2 0 0 0 0 0 44 5 5 44 71 92 28 100 100 100 18 5 25 34 95 17 5 3 86 67 100 100 100 100 100 100 100
0 0 0 0 1 5 5 5 9 5 5 5 0 0 0 0 0 0 4 4 79 97 50 55 100 100 72 7 5 56 100 100 100 34 0 2 21 74 100 100 100 100 100
0 0 0 0 5 5 9 87 86 9 5 8 5 2 3 0 0 1 3 3 3 37 80 100 100 100 41 100 100 81 9 100 100 100 91 2 0 1 7 100 100 100 100
0 0 0 0 0 11 5 9 5 5 2 5 5 16 26 5 1 4 5 6 5 5 16 100 99 100 100 100 100 99 97 21 100 100 100 100 5 89 45 1 87 100 100
0 0 0 0 0 0 1 1 5 5 2 0 0 2 5 5 5 5 46 93 100 100 100 100 100 98 100 100 100 100 100 100 98 55 100 95 93 95 10 5 0 9 99
0 0 0 0 0 4 5 5 5 5 5 4 4 1 3 50 5 82 96 19 5 42 100 54 6 76 92 98 100 100 100 100 100 96 100 60 9 12 98 100 4 71 0
0 0 0 0 0 0 0 22 5 5 5 5 5 5 5 31 20 14 32 15 5 5 5 7 12 15 21 23 44 99 100 100 100 100 57 35 100 100 65 20 5 2 0
0 0 0 0 0 0 5 6 4 6 87 77 17 25 22 1 38 5 25 97 100 5 5 5 5 36 100 97 99 99 74 89 100 100 100 100 100 100 92 9 3 5 5
0 0 0 0 0 5 5 5 5 2 5 75 96 50 64 45 100 10 22 95 11 21 72 68 5 5 8 5 8 5 28 11 77 76 100 100 100 100 100 75 94 17 3
0 0 0 0 3 5 5 53 62 22 5 3 5 14 92 100 100 42 22 99 66 92 100 100 98 97 15 6 17 15 15 5 60 64 52 100 100 100 51 70 96 100 100
0 0 0 0 0 5 5 5 39 73 57 4 77 88 95 100 100 23 61 66 87 95 97 100 56 17 5 6 40 71 97 100 100 98 75 91 95 55 59 100 100 86 100
0 5 5 3 0 5 5 46 34 97 5 5 0 53 100 100 100 46 51 100 100 100 100 100 100 100 93 8 5 40 5 63 100 94 97 100 100 100 100 100 100 99 83
0 5 5 3 4 11 29 50 87 89 77 31 6 100 99 93 100 96 85 97 100 100 100 100 100 97 37 44 8 48 99 81 57 98 100 85 98 48 28 2 0 0 0
5 5 2 42 35 100 100 100 100 100 11 0 8 83 97 22 100 92 100 100 100 100 100 80 71 100 46 5 5 5 12 1 1 0 1 0 0 0 0 0 0 0 0
5 14 85 99 100 100 100 100 100 100 94 93 90 98 71 62 100 79 48 100 100 100 100 98 95 98 22 5 1 0 0 4 0 0 0 0 0 0 0 0 0 0 0
76 100 100 100 100 100 100 100 97 100 100 100 36 8 26 100 57 60 100 100 99 84 70 82 76 84 70 5 5 0 0 100 1 0 0 0 0 0 0 0 0 0 0